PROFILE

 METAR AND TAF INFORMATION
ADDS - METARS form results

(2020 UTC 30 October 2020)
http://aviationweather.gov/metar/data/
 
LIME 301950Z 35002KT 8000 NSC 11/10 Q1024 NOSIG
TAF LIME 301700Z 3018/3118 VRB04KT 7000 NSC TEMPO 3100/3106 3000 BR 

 AIRPORT MAP

 RUNWAY INFORMATION
Runway 10 Runway length 9636 ft Runway width 148 ft
Runway elevation 779 ft Runway displaced threshold 312 ft Runway heading 105
Runway 28 Runway length 9636 ft Runway width 148 ft
Runway elevation 754 ft Runway displaced threshold 427 ft Runway heading 285
Runway 12 Runway length 2552 ft Runway width 59 ft
Runway elevation 782 ft Runway displaced threshold 210 ft Runway heading 121
Runway 30 Runway length 2552 ft Runway width 59 ft
Runway elevation 782 ft Runway displaced threshold 328 ft Runway heading 301

 AIRPORT FREQUENCIES
Type APP Name MILANO APP Frequency 126.75 MHZ
Type ATIS Name ATIS Frequency 112.6 MHZ
Type GND Name ORIO GND Frequency 120.5 MHZ
Type TWR Name ORIO TWR Frequency 126.5 MHZ

 AIRPORT NEAR NAVIGATION AIDS
Type VOR-DME Name Orio Al Serio Frequency 112600 KHZ
Type NDB Name Orio Al Serio Frequency 377 KHZ